Home > Time Zones > World Clock > Weather > India > Thane > Past weeks

Flag for India Weather past 2 weeks in Thane, Maharashtra, India

Now
88 °F

Broken clouds.


Feels Like: 105 °F
Forecast: 80 / 85 °F
Wind: 8 mph from West

Location: Bombay / Santacruz

Current Time: Jul 24, 2014 at 7:14:03 PM

Latest Report: Jul 24, 2014 at 4:40 PM


Visibility: 2 mi

Pressure: 29.62 "Hg

Humidity: 79%

Dew point: 81 °F

Location of ThaneLocation

Historic Weather in Thane — Graph

°F

Thane temperature yesterday

Maximum temperature yesterday: 82 °F (at 4:40 AM)
Minimum temperature yesterday: 82 °F (at 4:40 AM)
Average temperature yesterday: 82 °F

Past Weeks' High & Low Weather Summary

 TemperatureHumidityPressure
High88 °F (Jul 21, 11:40 AM)100% (Jul 10, 4:40 PM)29.71 "Hg (Jul 10, 4:40 PM)
Low75 °F (Jul 11, 10:40 PM)75% (Jul 14, 3:40 PM)29.50 "Hg (Jul 15, 5:40 PM)
Average81 °F89%29.62 "Hg
* Reported Jul 9 6:40 PM — Jul 24 4:40 PM, Thane, Weather by CustomWeather, © 2014

Note: Actual official high and low records may vary slightly from our data, if they occured in-between our weather recording intervals... More about our weather records

Advertising

Thane weather history for previous 24 hours

 ConditionsComfort  
Time TempWeatherWind HumidityBarometerVisibility
4:40 PM
Jul 24
88 °FBroken clouds.8 mph79%29.62 "Hg2 mi
3:40 PM88 °FScattered clouds.12 mph75%29.62 "Hg2 mi
2:40 PM88 °FScattered clouds.21 mph75%29.62 "Hg2 mi
1:40 PM86 °FBroken clouds.12 mph79%29.65 "Hg2 mi
12:40 PM86 °FBroken clouds.16 mph79%29.65 "Hg2 mi
11:40 AM88 °FScattered clouds.15 mph75%29.65 "Hg2 mi
10:40 AM86 °FScattered clouds.12 mph79%29.65 "Hg2 mi
9:40 AM84 °FBroken clouds.8 mph89%29.65 "Hg2 mi
8:40 AM84 °FBroken clouds.14 mph84%29.65 "Hg2 mi
7:40 AM81 °FBroken clouds.14 mph84%29.62 "Hg2 mi
5:40 AM82 °FMostly cloudy.16 mph89%29.59 "Hg2 mi
3:40 AM81 °FRain. Mostly cloudy.12 mph94%29.59 "Hg2 mi
2:40 AM82 °FLight rain. Mostly cloudy.8 mph94%29.59 "Hg1 mi
1:40 AM82 °FMostly cloudy.9 mph89%29.59 "Hg2 mi
12:40 AM82 °FDrizzle. Mostly cloudy.12 mph94%29.62 "Hg2 mi
11:40 PM
Jul 23
82 °FDrizzle. Mostly cloudy.9 mph94%29.62 "Hg1 mi
9:40 PM82 °FLight rain. Mostly cloudy.12 mph94%29.65 "Hg1 mi
8:40 PM82 °FDrizzle. Mostly cloudy.12 mph94%29.62 "Hg1 mi
7:40 PM82 °FLight rain. More clouds than sun.15 mph94%29.62 "Hg1 mi
Weather by CustomWeather, © 2014

See weather overviewHow to use our weather pages